TimeAKST,TemperatureF,Dew PointF,Humidity,Sea Level PressureIn,VisibilityMPH,Wind Direction,Wind SpeedMPH,Gust SpeedMPH,PrecipitationIn,Events,Conditions,WindDirDegrees,DateUTC
12:53 AM,-0.0,-5.1,79,30.12,10.0,NNE,8.1,-,N/A,,Clear,20,2013-11-07 09:53:00
1:53 AM,6.1,-0.0,76,30.11,10.0,NNE,8.1,-,N/A,,Clear,20,2013-11-07 10:53:00
3:53 AM,-2.0,-7.1,79,30.06,10.0,NNE,8.1,-,N/A,,Clear,30,2013-11-07 12:53:00
4:53 AM,-2.9,-9.0,75,30.05,10.0,NNE,10.4,-,N/A,,Clear,30,2013-11-07 13:53:00
5:53 AM,-0.9,-8.0,72,30.04,10.0,NE,4.6,-,N/A,,Clear,40,2013-11-07 14:53:00
6:53 AM,1.0,-5.1,75,30.02,10.0,NNE,8.1,-,N/A,,Clear,30,2013-11-07 15:53:00
7:53 AM,-2.9,-9.0,75,30.00,10.0,NNE,8.1,-,N/A,,Partly Cloudy,20,2013-11-07 16:53:00
8:53 AM,1.9,-5.1,72,29.99,10.0,NNE,4.6,-,N/A,,Partly Cloudy,20,2013-11-07 17:53:00
9:53 AM,-2.9,-8.0,79,29.98,10.0,NNE,6.9,-,N/A,,Partly Cloudy,20,2013-11-07 18:53:00
10:53 AM,6.1,-0.0,76,29.96,10.0,NE,6.9,-,N/A,,Partly Cloudy,40,2013-11-07 19:53:00
11:53 AM,10.0,3.0,73,29.95,10.0,NE,6.9,-,N/A,,Scattered Clouds,40,2013-11-07 20:53:00
12:53 PM,12.9,5.0,71,29.94,10.0,NNE,4.6,-,N/A,,Partly Cloudy,20,2013-11-07 21:53:00
1:53 PM,16.0,7.0,68,29.93,10.0,NNE,3.5,-,N/A,,Scattered Clouds,30,2013-11-07 22:53:00
2:53 PM,15.1,6.1,68,29.93,10.0,Calm,Calm,-,N/A,,Scattered Clouds,0,2013-11-07 23:53:00
3:53 PM,7.0,1.0,77,29.94,10.0,Calm,Calm,-,N/A,,Scattered Clouds,0,2013-11-08 00:53:00
4:08 PM,8.1,1.9,76,29.89,10.0,Calm,Calm,-,N/A,,Scattered Clouds,0,2013-11-08 01:08:00
4:53 PM,3.9,-0.0,84,29.94,10.0,NNE,3.5,-,N/A,,Scattered Clouds,20,2013-11-08 01:53:00
5:53 PM,-0.0,-5.1,79,29.95,10.0,NNE,8.1,-,N/A,,Scattered Clouds,30,2013-11-08 02:53:00
6:53 PM,7.0,-0.0,73,29.96,10.0,North,5.8,-,N/A,,Scattered Clouds,360,2013-11-08 03:53:00
7:53 PM,-0.0,-5.1,79,29.96,10.0,NNE,4.6,-,N/A,,Scattered Clouds,20,2013-11-08 04:53:00
8:53 PM,-0.0,-5.1,79,29.97,10.0,Calm,Calm,-,N/A,,Scattered Clouds,0,2013-11-08 05:53:00
9:53 PM,-0.0,-6.0,76,29.99,10.0,Calm,Calm,-,N/A,,Scattered Clouds,0,2013-11-08 06:53:00
10:53 PM,-2.0,-7.1,79,30.00,10.0,NNE,3.5,-,N/A,,Partly Cloudy,30,2013-11-08 07:53:00
11:53 PM,-6.0,-11.0,79,30.01,10.0,NNE,5.8,-,N/A,,Partly Cloudy,30,2013-11-08 08:53:00